Powrót do katalogu

STARLINK-35752

AktywnyŁącznośćVLEO
NORAD 66275·PAYLOAD·🇺🇸 United States

Wystrzelony Oct 31, 2025 z Vandenberg Space Force Base

Loading…

Następne Przeloty (najbliższe 24 godziny)

TLE

ŚwieżeSource: CelesTrak SupGP

Epoka: Sep 14, 2026, 14:48 UTC

1 66275C 25247L   26257.61715278 -.00071324  00000+0 -21072-2 0  2574
2 66275  53.1595  31.1176 0001174  79.1869  95.1853 15.34426985    17

Śledź STARLINK-35752 w czasie rzeczywistym z AllMySat

Download on the App Store